Simultaneous Nadir Overpasses (SNOs) Predictions

Prediction of SNOs between AQUA and METOP-B Satellite Orbit:

Table of predicted SNOs for the next 14.0 days since TLE Epoch: 11/26/2022
Index Date (AQUA) Time (AQUA) Lat,Lon (AQUA) SZA (AQUA ) Date (METOP-B) Time (METOP-B) Lat,Lon (METOP-B) SZA (METOP-B ) Distance(km) Time Diff (sec)
1 11/26/2022 09:18:56 73.63, 36.37 94.51 11/26/2022 09:17:48 73.62, 34.33 94.52 64.11 68
2 11/26/2022 10:08:31 -74.16,-157.17 84.95 11/26/2022 10:08:19 -74.15,-157.06 84.96 3.54 12
3 11/26/2022 10:57:58 74.18, 10.44 95.07 11/26/2022 10:58:58 74.20, 10.39 95.09 2.84 60
4 11/29/2022 04:02:42 -73.63, -64.54 85.00 11/29/2022 04:01:34 -73.56, -66.74 85.04 69.35 68
5 11/29/2022 04:52:18 74.12, 102.01 95.50 11/29/2022 04:52:02 74.15, 102.00 95.54 3.47 16
6 11/29/2022 05:41:44 -74.17, -90.47 84.44 11/29/2022 05:42:43 -74.19, -90.57 84.42 3.46 59
7 12/01/2022 23:36:04 -74.13, 1.05 84.03 12/01/2022 23:35:47 -74.13, 1.03 84.03 0.54 17
8 12/02/2022 00:25:32 74.21, 168.51 96.05 12/02/2022 00:26:25 74.22, 168.59 96.06 2.80 53
9 12/04/2022 17:30:09 -73.40, 94.11 84.40 12/04/2022 17:29:04 -73.38, 90.99 84.37 99.18 65
10 12/04/2022 18:19:50 74.16, -99.92 96.39 12/04/2022 18:19:28 74.16, -99.82 96.39 3.28 22
11 12/04/2022 19:09:16 -74.20, 67.62 83.57 12/04/2022 19:10:09 -74.20, 67.61 83.57 0.23 53
12 12/07/2022 13:03:34 -74.12, 159.25 83.32 12/07/2022 13:03:13 -74.14, 159.19 83.30 2.94 21
13 12/07/2022 13:53:02 74.20, -33.31 96.78 12/07/2022 13:53:51 74.22, -33.26 96.80 2.81 49



Historial Predications of SNOs between AQUA and METOP-B
